Location: Baix
(44.7118°N, 4.7648°E)
Time: 02:17:54
(UTC+00:00)

Cosmos 1758 - Pass Details

Date: 07 August 2020
Orbit: 540 x 562 km, 82.5° (Epoch: 19 September)

Event Time Altitude Azimuth Distance (km) Brightness Sun altitude
Exits shadow 03:12:46 21° 228° (SW) 1,268 4.5 -13.1°
Maximum altitude 03:14:56 38° 284° (WNW) 865 4.0 -12.8°
Drops below altitude 10° 03:18:43 10° 353° (N) 1,839 6.4 -12.3°
Sets 03:21:01 0° 2° (N) 2,733 7.5 -12.0°
